FW8952 Weather Reports


Display with metric or nautical units.
time (UTC)temp
F
wind
direction
speed
MPH
gust
MPH
rain 1hr
in
rain 24hr
in
rain mn
in
humidity
%
barometer
mb
20221005114558 75 138 1.0 8.0 0.00 0.00 0.00 44 1023.1
20221005113059 75 0 1.0 6.0 0.00 0.00 0.00 46 1023.2
20221005111559 74 0 1.0 9.0 0.00 0.00 0.00 46 1023.5
20221005110103 74 161 1.0 9.0 0.00 0.00 0.00 45 1023.6
20221005104557 75 230 1.0 6.0 0.00 0.00 0.00 43 1023.8
20221005103105 75 252 1.0 4.0 0.00 0.00 0.00 44 1023.9
20221005101600 74 0 2.0 5.0 0.00 0.00 0.00 43 1023.9
20221004201606 66 0 0.0 1.0 0.00 0.00 0.00 51 1021.9
20221004201219 66 0 0.0 1.0 0.00 0.00 0.00 52 1021.9
20221004193106 67 0 0.0 1.0 0.00 0.00 0.00 51 1021.5
20221004191609 67 0 0.0 1.0 0.00 0.00 0.00 51 1021.2
20221004190107 67 0 0.0 2.0 0.00 0.00 0.00 51 1021.0
20221004184611 67 0 0.0 1.0 0.00 0.00 0.00 52 1020.9
20221004183104 68 250 0.0 10.0 0.00 0.00 0.00 50 1020.7
20221004181628 69 282 1.0 6.0 0.00 0.00 0.00 50 1020.5
20221004180101 69 0 0.0 4.0 0.00 0.00 0.00 48 1020.2
20221004174600 69 0 0.0 4.0 0.00 0.00 0.00 48 1020.0
20221004173102 70 0 0.0 3.0 0.00 0.00 0.00 46 1019.8
20221004161602 73 325 1.0 10.0 0.00 0.00 0.00 39 1019.0
20221004160109 74 338 0.0 7.0 0.00 0.00 0.00 39 1018.9
20221004154611 74 215 0.0 6.0 0.00 0.00 0.00 39 1018.8
20221004153100 75 0 0.0 2.0 0.00 0.00 0.00 38 1018.6
20221004151558 75 119 1.0 7.0 0.00 0.00 0.00 38 1018.6
20221004150100 76 341 0.0 11.0 0.00 0.00 0.00 37 1018.5
20221004144559 76 40 2.0 9.0 0.00 0.00 0.00 37 1018.4
20221004143101 75 0 1.0 8.0 0.00 0.00 0.00 37 1018.5
20221004141559 75 151 2.0 8.0 0.00 0.00 0.00 36 1018.4
20221004140104 75 0 1.0 6.0 0.00 0.00 0.00 38 1018.3
20221004134557 75 154 2.0 8.0 0.00 0.00 0.00 37 1018.2
20221004133100 75 0 3.0 10.0 0.00 0.00 0.00 37 1018.2
20221004131556 75 227 2.0 9.0 0.00 0.00 0.00 38 1018.0
20221004130102 75 5 3.0 11.0 0.00 0.00 0.00 38 1018.1
20221004124603 75 24 3.0 12.0 0.00 0.00 0.00 39 1018.2
20221004123103 75 138 4.0 12.0 0.00 0.00 0.00 39 1018.3
20221004121601 75 0 3.0 10.0 0.00 0.00 0.00 40 1018.2
20221004120104 74 164 4.0 10.0 0.00 0.00 0.00 40 1018.3